| time (UTC) | temp C | wind direction | speed KPH | gust KPH | rain 1hr cm | rain 24hr cm | rain mn cm | humidity % | barometer mb |
| 20260905131811 | 26 | 203 | 1.6 | 1.6 | 0.00 | 0.00 | 0.00 | 95 | 1017.7 |
| 20260905131306 | 25 | 197 | 3.2 | 4.8 | 0.00 | 0.00 | 0.00 | 96 | 1017.9 |
| 20260905130801 | 25 | 150 | 4.8 | 4.8 | 0.00 | 0.00 | 0.00 | 98 | 1017.7 |
| 20260905130300 | 25 | 188 | 3.2 | 3.2 | 0.00 | 0.00 | 0.00 | 99 | 1017.5 |
| 20260905125755 | 24 | 219 | 1.6 | 3.2 | 0.00 | 0.00 | 0.00 | 99 | 1017.4 |
| 20260905125250 | 24 | 205 | 0.0 | 0.0 | 0.00 | 0.00 | 0.00 | 99 | 1017.5 |
| 20260905124747 | 23 | 223 | 0.0 | 0.0 | 0.00 | 0.00 | 0.00 | 99 | 1017.4 |
| 20260905124243 | 23 | 222 | 0.0 | 0.0 | 0.00 | 0.00 | 0.00 | 99 | 1017.4 |
| 20260905123737 | 23 | 221 | 0.0 | 0.0 | 0.00 | 0.00 | 0.00 | 99 | 1017.3 |
| 20260905123234 | 23 | 222 | 0.0 | 0.0 | 0.00 | 0.00 | 0.00 | 99 | 1017.6 |
| 20260905122729 | 23 | 222 | 0.0 | 0.0 | 0.00 | 0.00 | 0.00 | 99 | 1017.6 |
| 20260905122228 | 23 | 230 | 0.0 | 0.0 | 0.00 | 0.00 | 0.00 | 99 | 1017.1 |
| 20260905121724 | 23 | 230 | 0.0 | 0.0 | 0.00 | 0.00 | 0.00 | 99 | 1017.3 |
| 20260905121220 | 23 | 230 | 0.0 | 0.0 | 0.00 | 0.00 | 0.00 | 99 | 1017.1 |
| 20260905120719 | 23 | 230 | 0.0 | 0.0 | 0.00 | 0.00 | 0.00 | 99 | 1017.0 |
| 20260905120214 | 23 | 230 | 0.0 | 0.0 | 0.00 | 0.00 | 0.00 | 99 | 1017.3 |
| 20260905115714 | 23 | 230 | 0.0 | 0.0 | 0.00 | 0.00 | 0.00 | 99 | 1017.1 |
| 20260905115208 | 23 | 230 | 0.0 | 0.0 | 0.00 | 0.00 | 0.00 | 99 | 1017.2 |
| 20260905114703 | 23 | 230 | 0.0 | 0.0 | 0.00 | 0.00 | 0.00 | 99 | 1017.1 |
| 20260905114201 | 23 | 230 | 0.0 | 0.0 | 0.00 | 0.00 | 0.00 | 99 | 1017.0 |
| 20260905113701 | 23 | 230 | 0.0 | 0.0 | 0.00 | 0.00 | 0.00 | 99 | 1017.1 |
| 20260905113157 | 23 | 230 | 0.0 | 0.0 | 0.00 | 0.00 | 0.00 | 99 | 1016.6 |
| 20260905112656 | 23 | 230 | 0.0 | 0.0 | 0.00 | 0.00 | 0.00 | 99 | 1016.8 |
| 20260905112152 | 24 | 230 | 0.0 | 0.0 | 0.00 | 0.00 | 0.00 | 99 | 1016.8 |
| 20260905111652 | 24 | 230 | 0.0 | 0.0 | 0.00 | 0.00 | 0.00 | 99 | 1016.7 |
| 20260905111151 | 24 | 232 | 0.0 | 0.0 | 0.00 | 0.00 | 0.00 | 99 | 1016.8 |
| 20260905110650 | 24 | 232 | 0.0 | 0.0 | 0.00 | 0.00 | 0.00 | 99 | 1016.7 |
| 20260905110145 | 24 | 232 | 0.0 | 0.0 | 0.00 | 0.00 | 0.00 | 99 | 1016.7 |
| 20260905105641 | 24 | 232 | 0.0 | 0.0 | 0.00 | 0.00 | 0.00 | 99 | 1016.7 |
| 20260905105139 | 24 | 232 | 0.0 | 0.0 | 0.00 | 0.00 | 0.00 | 99 | 1016.6 |
| 20260905104635 | 24 | 232 | 0.0 | 0.0 | 0.00 | 0.00 | 0.00 | 99 | 1016.5 |
| 20260905104130 | 24 | 232 | 0.0 | 0.0 | 0.00 | 0.00 | 0.00 | 98 | 1016.5 |
| 20260905103625 | 24 | 232 | 0.0 | 0.0 | 0.00 | 0.00 | 0.00 | 98 | 1016.5 |
| 20260905103121 | 24 | 232 | 0.0 | 0.0 | 0.00 | 0.00 | 0.00 | 98 | 1016.8 |
| 20260905102617 | 24 | 232 | 0.0 | 0.0 | 0.00 | 0.00 | 0.00 | 98 | 1016.7 |
| 20260905102114 | 24 | 232 | 0.0 | 0.0 | 0.00 | 0.00 | 0.00 | 98 | 1016.7 |
| 20260905101611 | 24 | 232 | 0.0 | 0.0 | 0.00 | 0.00 | 0.00 | 98 | 1016.6 |
| 20260905101110 | 24 | 232 | 0.0 | 0.0 | 0.00 | 0.00 | 0.00 | 98 | 1016.6 |
| 20260905100607 | 24 | 232 | 0.0 | 0.0 | 0.00 | 0.00 | 0.00 | 97 | 1016.5 |
| 20260905100101 | 24 | 232 | 0.0 | 0.0 | 0.00 | 0.00 | 0.00 | 97 | 1016.6 |
| 20260905095555 | 25 | 232 | 0.0 | 0.0 | 0.00 | 0.00 | 0.00 | 97 | 1016.6 |
| 20260905095051 | 25 | 232 | 0.0 | 0.0 | 0.00 | 0.00 | 0.00 | 97 | 1016.5 |
| 20260905094545 | 25 | 232 | 0.0 | 0.0 | 0.00 | 0.00 | 0.00 | 97 | 1016.5 |
| 20260905094045 | 25 | 232 | 0.0 | 0.0 | 0.00 | 0.00 | 0.00 | 97 | 1016.4 |
| 20260905093545 | 25 | 232 | 0.0 | 0.0 | 0.00 | 0.00 | 0.00 | 96 | 1016.3 |
| 20260905093042 | 25 | 232 | 0.0 | 0.0 | 0.00 | 0.00 | 0.00 | 96 | 1016.5 |
| 20260905092535 | 25 | 232 | 0.0 | 0.0 | 0.00 | 0.00 | 0.00 | 96 | 1016.5 |
| 20260905092032 | 25 | 231 | 0.0 | 0.0 | 0.00 | 0.00 | 0.00 | 96 | 1016.5 |
| 20260905091530 | 25 | 230 | 0.0 | 0.0 | 0.00 | 0.00 | 0.00 | 95 | 1016.5 |
| 20260905091031 | 25 | 230 | 0.0 | 0.0 | 0.00 | 0.00 | 0.00 | 95 | 1016.7 |
| 20260905090525 | 25 | 231 | 0.0 | 0.0 | 0.00 | 0.00 | 0.00 | 94 | 1016.8 |
| 20260905090020 | 25 | 231 | 0.0 | 0.0 | 0.00 | 0.00 | 0.00 | 94 | 1016.6 |
| 20260905085519 | 25 | 228 | 0.0 | 0.0 | 0.00 | 0.00 | 0.00 | 94 | 1016.7 |
| 20260905085015 | 25 | 228 | 0.0 | 0.0 | 0.00 | 0.00 | 0.00 | 94 | 1016.7 |
| 20260905084514 | 25 | 228 | 0.0 | 0.0 | 0.00 | 0.00 | 0.00 | 93 | 1016.8 |
| 20260905084009 | 25 | 226 | 0.0 | 0.0 | 0.00 | 0.00 | 0.00 | 93 | 1016.7 |
| 20260905083504 | 25 | 226 | 0.0 | 0.0 | 0.00 | 0.00 | 0.00 | 92 | 1016.5 |
| 20260905083000 | 25 | 222 | 0.0 | 0.0 | 0.00 | 0.00 | 0.00 | 92 | 1016.6 |
| 20260905082456 | 25 | 203 | 3.2 | 3.2 | 0.00 | 0.00 | 0.00 | 92 | 1016.7 |
| 20260905081950 | 25 | 224 | 0.0 | 0.0 | 0.00 | 0.00 | 0.00 | 92 | 1016.7 |
| 20260905081446 | 25 | 223 | 0.0 | 0.0 | 0.00 | 0.00 | 0.00 | 92 | 1016.7 |
| 20260905080945 | 26 | 207 | 0.0 | 0.0 | 0.00 | 0.00 | 0.00 | 91 | 1016.8 |
| 20260905080440 | 26 | 205 | 1.6 | 1.6 | 0.00 | 0.00 | 0.00 | 91 | 1017.0 |
| 20260905075938 | 26 | 206 | 0.0 | 0.0 | 0.00 | 0.00 | 0.00 | 91 | 1016.7 |
| 20260905075433 | 26 | 222 | 0.0 | 0.0 | 0.00 | 0.00 | 0.00 | 91 | 1017.1 |
| 20260905074932 | 26 | 201 | 0.0 | 1.6 | 0.00 | 0.00 | 0.00 | 90 | 1017.2 |
| 20260905074428 | 26 | 207 | 0.0 | 1.6 | 0.00 | 0.00 | 0.00 | 90 | 1017.0 |
| 20260905073923 | 26 | 231 | 0.0 | 0.0 | 0.00 | 0.00 | 0.00 | 90 | 1017.2 |
| 20260905073418 | 26 | 225 | 0.0 | 0.0 | 0.00 | 0.00 | 0.00 | 90 | 1017.1 |
| 20260905072914 | 26 | 227 | 0.0 | 0.0 | 0.00 | 0.00 | 0.00 | 89 | 1017.1 |
| 20260905072409 | 26 | 203 | 0.0 | 0.0 | 0.00 | 0.00 | 0.00 | 89 | 1017.1 |
| 20260905071905 | 26 | 221 | 0.0 | 0.0 | 0.00 | 0.00 | 0.00 | 89 | 1017.3 |
| 20260905071401 | 26 | 205 | 0.0 | 0.0 | 0.00 | 0.00 | 0.00 | 88 | 1017.1 |
| 20260905070901 | 26 | 203 | 1.6 | 1.6 | 0.00 | 0.00 | 0.00 | 88 | 1017.2 |
| 20260905070357 | 26 | 215 | 0.0 | 1.6 | 0.00 | 0.00 | 0.00 | 88 | 1017.2 |
| 20260905065857 | 26 | 205 | 0.0 | 0.0 | 0.00 | 0.00 | 0.00 | 88 | 1017.3 |
| 20260905065355 | 26 | 206 | 0.0 | 1.6 | 0.00 | 0.00 | 0.00 | 88 | 1017.1 |
| 20260905064850 | 26 | 229 | 0.0 | 0.0 | 0.00 | 0.00 | 0.00 | 87 | 1017.2 |
| 20260905064346 | 26 | 215 | 1.6 | 1.6 | 0.00 | 0.00 | 0.00 | 86 | 1017.4 |
| 20260905063844 | 26 | 203 | 0.0 | 0.0 | 0.00 | 0.00 | 0.00 | 86 | 1017.2 |
| 20260905063341 | 26 | 224 | 1.6 | 1.6 | 0.00 | 0.00 | 0.00 | 86 | 1017.5 |
| 20260905062837 | 26 | 223 | 0.0 | 1.6 | 0.00 | 0.00 | 0.00 | 85 | 1017.3 |
| 20260905062337 | 27 | 207 | 0.0 | 0.0 | 0.00 | 0.00 | 0.00 | 85 | 1017.5 |
| 20260905061832 | 27 | 223 | 1.6 | 1.6 | 0.00 | 0.00 | 0.00 | 85 | 1017.4 |
| 20260905061331 | 27 | 207 | 3.2 | 3.2 | 0.00 | 0.00 | 0.00 | 85 | 1017.3 |
| 20260905060826 | 27 | 206 | 0.0 | 0.0 | 0.00 | 0.00 | 0.00 | 84 | 1017.3 |
| 20260905060322 | 27 | 222 | 3.2 | 3.2 | 0.00 | 0.00 | 0.00 | 84 | 1017.3 |
| 20260905055821 | 27 | 202 | 0.0 | 0.0 | 0.00 | 0.00 | 0.00 | 84 | 1017.3 |
| 20260905055316 | 27 | 177 | 6.4 | 8.0 | 0.00 | 0.00 | 0.00 | 83 | 1017.2 |
| 20260905054816 | 27 | 204 | 1.6 | 1.6 | 0.00 | 0.00 | 0.00 | 83 | 1017.2 |
| 20260905054313 | 27 | 190 | 3.2 | 3.2 | 0.00 | 0.00 | 0.00 | 83 | 1017.4 |
| 20260905053812 | 27 | 224 | 0.0 | 1.6 | 0.00 | 0.00 | 0.00 | 82 | 1017.3 |
| 20260905053307 | 27 | 210 | 1.6 | 3.2 | 0.00 | 0.00 | 0.00 | 82 | 1017.4 |
| 20260905052802 | 27 | 179 | 1.6 | 3.2 | 0.00 | 0.00 | 0.00 | 82 | 1017.2 |
| 20260905052302 | 27 | 199 | 1.6 | 3.2 | 0.00 | 0.00 | 0.00 | 81 | 1017.3 |
| 20260905051801 | 27 | 195 | 0.0 | 1.6 | 0.00 | 0.00 | 0.00 | 81 | 1017.4 |
| 20260905051258 | 27 | 196 | 1.6 | 1.6 | 0.00 | 0.00 | 0.00 | 81 | 1017.5 |
| 20260905050754 | 27 | 106 | 3.2 | 4.8 | 0.00 | 0.00 | 0.00 | 80 | 1017.5 |
| 20260905050250 | 27 | 185 | 3.2 | 4.8 | 0.00 | 0.00 | 0.00 | 80 | 1017.1 |
| 20260905045745 | 27 | 202 | 6.4 | 8.0 | 0.00 | 0.00 | 0.00 | 79 | 1017.5 |
| 20260905045240 | 27 | 201 | 1.6 | 3.2 | 0.00 | 0.00 | 0.00 | 79 | 1017.3 |
| 20260905044735 | 27 | 201 | 4.8 | 4.8 | 0.00 | 0.00 | 0.00 | 79 | 1017.4 |
| 20260905044231 | 27 | 203 | 1.6 | 1.6 | 0.00 | 0.00 | 0.00 | 79 | 1017.5 |
| 20260905043729 | 27 | 214 | 3.2 | 4.8 | 0.00 | 0.00 | 0.00 | 78 | 1017.3 |
| 20260905043229 | 27 | 176 | 3.2 | 4.8 | 0.00 | 0.00 | 0.00 | 78 | 1017.1 |
| 20260905042725 | 27 | 223 | 0.0 | 1.6 | 0.00 | 0.00 | 0.00 | 78 | 1017.4 |
| 20260905042224 | 28 | 209 | 3.2 | 3.2 | 0.00 | 0.00 | 0.00 | 77 | 1017.3 |
| 20260905041720 | 28 | 183 | 4.8 | 8.0 | 0.00 | 0.00 | 0.00 | 77 | 1017.2 |
| 20260905041215 | 28 | 207 | 1.6 | 1.6 | 0.00 | 0.00 | 0.00 | 77 | 1017.2 |
| 20260905040710 | 28 | 147 | 4.8 | 4.8 | 0.00 | 0.00 | 0.00 | 76 | 1017.0 |
| 20260905040209 | 28 | 213 | 1.6 | 1.6 | 0.00 | 0.00 | 0.00 | 76 | 1017.2 |
| 20260905035709 | 28 | 203 | 3.2 | 3.2 | 0.00 | 0.00 | 0.00 | 76 | 1017.2 |
| 20260905035205 | 28 | 213 | 3.2 | 3.2 | 0.00 | 0.00 | 0.00 | 76 | 1017.3 |
| 20260905034701 | 28 | 220 | 0.0 | 0.0 | 0.00 | 0.00 | 0.00 | 75 | 1017.1 |
| 20260905034201 | 28 | 226 | 3.2 | 3.2 | 0.00 | 0.00 | 0.00 | 75 | 1017.1 |
| 20260905033700 | 28 | 211 | 1.6 | 1.6 | 0.00 | 0.00 | 0.00 | 74 | 1017.2 |
| 20260905033156 | 28 | 199 | 3.2 | 4.8 | 0.00 | 0.00 | 0.00 | 73 | 1017.3 |
| 20260905032655 | 28 | 185 | 3.2 | 4.8 | 0.00 | 0.00 | 0.00 | 73 | 1017.0 |
| 20260905032155 | 28 | 223 | 6.4 | 9.7 | 0.00 | 0.00 | 0.00 | 72 | 1017.0 |
| 20260905031651 | 28 | 201 | 4.8 | 4.8 | 0.00 | 0.00 | 0.00 | 72 | 1016.8 |
| 20260905031147 | 28 | 192 | 3.2 | 3.2 | 0.00 | 0.00 | 0.00 | 71 | 1017.0 |
| 20260905030642 | 28 | 174 | 4.8 | 4.8 | 0.00 | 0.00 | 0.00 | 71 | 1017.0 |
| 20260905030137 | 28 | 213 | 6.4 | 8.0 | 0.00 | 0.00 | 0.00 | 71 | 1016.7 |
| 20260905025631 | 28 | 221 | 0.0 | 0.0 | 0.00 | 0.00 | 0.00 | 71 | 1016.7 |
| 20260905025128 | 28 | 192 | 1.6 | 1.6 | 0.00 | 0.00 | 0.00 | 71 | 1017.0 |
| 20260905024623 | 28 | 180 | 4.8 | 4.8 | 0.00 | 0.00 | 0.00 | 70 | 1016.7 |
| 20260905024118 | 28 | 158 | 4.8 | 4.8 | 0.00 | 0.00 | 0.00 | 70 | 1016.5 |
| 20260905023614 | 28 | 210 | 0.0 | 0.0 | 0.00 | 0.00 | 0.00 | 70 | 1016.5 |
| 20260905023108 | 28 | 165 | 3.2 | 8.0 | 0.00 | 0.00 | 0.00 | 70 | 1016.3 |
| 20260905022607 | 29 | 156 | 4.8 | 8.0 | 0.00 | 0.00 | 0.00 | 70 | 1016.5 |
| 20260905022103 | 29 | 197 | 3.2 | 3.2 | 0.00 | 0.00 | 0.00 | 69 | 1016.3 |
| 20260905021602 | 29 | 200 | 3.2 | 3.2 | 0.00 | 0.00 | 0.00 | 70 | 1016.4 |
| 20260905021058 | 29 | 198 | 4.8 | 4.8 | 0.00 | 0.00 | 0.00 | 70 | 1016.2 |
| 20260905020557 | 29 | 196 | 3.2 | 3.2 | 0.00 | 0.00 | 0.00 | 69 | 1016.4 |
| 20260905020053 | 30 | 172 | 6.4 | 8.0 | 0.00 | 0.00 | 0.00 | 68 | 1016.3 |
| 20260905015550 | 30 | 193 | 4.8 | 4.8 | 0.00 | 0.00 | 0.00 | 69 | 1016.4 |
| 20260905015045 | 30 | 243 | 6.4 | 9.7 | 0.00 | 0.00 | 0.00 | 68 | 1016.1 |
| 20260905014540 | 30 | 174 | 3.2 | 3.2 | 0.00 | 0.00 | 0.00 | 68 | 1016.2 |
| 20260905014035 | 30 | 186 | 3.2 | 3.2 | 0.00 | 0.00 | 0.00 | 67 | 1016.2 |
| 20260905013532 | 30 | 193 | 4.8 | 4.8 | 0.00 | 0.00 | 0.00 | 67 | 1016.2 |
| 20260905013027 | 30 | 168 | 6.4 | 8.0 | 0.00 | 0.00 | 0.00 | 67 | 1015.9 |
| 20260905012521 | 30 | 209 | 6.4 | 8.0 | 0.00 | 0.00 | 0.00 | 66 | 1015.9 |
| 20260905012019 | 30 | 215 | 8.0 | 11.3 | 0.00 | 0.00 | 0.00 | 65 | 1016.1 |
| 20260905011514 | 30 | 137 | 4.8 | 4.8 | 0.00 | 0.00 | 0.00 | 65 | 1015.7 |
| 20260905011010 | 30 | 179 | 3.2 | 3.2 | 0.00 | 0.00 | 0.00 | 64 | 1015.7 |
| 20260905010509 | 31 | 167 | 6.4 | 8.0 | 0.00 | 0.00 | 0.00 | 63 | 1015.6 |
| 20260905010006 | 31 | 179 | 3.2 | 3.2 | 0.00 | 0.00 | 0.00 | 63 | 1015.7 |
| 20260905005501 | 31 | 162 | 8.0 | 9.7 | 0.00 | 0.00 | 0.00 | 62 | 1015.5 |
| 20260905004956 | 31 | 221 | 0.0 | 1.6 | 0.00 | 0.00 | 0.00 | 62 | 1015.6 |
| 20260905004451 | 31 | 175 | 3.2 | 4.8 | 0.00 | 0.00 | 0.00 | 62 | 1015.6 |
| 20260905003946 | 31 | 194 | 0.0 | 0.0 | 0.00 | 0.00 | 0.00 | 62 | 1015.6 |
| 20260905003442 | 31 | 184 | 6.4 | 9.7 | 0.00 | 0.00 | 0.00 | 61 | 1015.3 |
| 20260905002937 | 31 | 160 | 8.0 | 9.7 | 0.00 | 0.00 | 0.00 | 60 | 1015.2 |
| 20260905002432 | 32 | 188 | 4.8 | 4.8 | 0.00 | 0.00 | 0.00 | 58 | 1015.3 |
| 20260905001931 | 32 | 130 | 4.8 | 4.8 | 0.00 | 0.00 | 0.00 | 50 | 1015.2 |
| 20260905001427 | 32 | 222 | 3.2 | 4.8 | 0.00 | 0.00 | 0.00 | 49 | 1015.2 |
| 20260905000921 | 32 | 210 | 4.8 | 8.0 | 0.00 | 0.00 | 0.00 | 48 | 1015.4 |
| 20260905000417 | 32 | 207 | 3.2 | 4.8 | 0.00 | 0.00 | 0.00 | 46 | 1015.0 |
| 20260904235912 | 32 | 210 | 6.4 | 9.7 | 0.00 | 0.00 | 0.00 | 45 | 1015.2 |
| 20260904235408 | 32 | 206 | 9.7 | 11.3 | 0.00 | 0.00 | 0.00 | 44 | 1015.2 |
| 20260904234908 | 33 | 176 | 4.8 | 8.0 | 0.00 | 0.00 | 0.00 | 43 | 1014.9 |
| 20260904234402 | 33 | 164 | 3.2 | 4.8 | 0.00 | 0.00 | 0.00 | 44 | 1015.1 |
| 20260904233858 | 33 | 176 | 4.8 | 4.8 | 0.00 | 0.00 | 0.00 | 44 | 1015.0 |
| 20260904233354 | 33 | 212 | 8.0 | 11.3 | 0.00 | 0.00 | 0.00 | 43 | 1015.0 |
| 20260904232850 | 33 | 156 | 6.4 | 9.7 | 0.00 | 0.00 | 0.00 | 43 | 1014.8 |
| 20260904232346 | 33 | 161 | 4.8 | 8.0 | 0.00 | 0.00 | 0.00 | 43 | 1014.5 |
| 20260904231843 | 33 | 181 | 6.4 | 9.7 | 0.00 | 0.00 | 0.00 | 43 | 1014.8 |
| 20260904231342 | 33 | 195 | 1.6 | 1.6 | 0.00 | 0.00 | 0.00 | 46 | 1015.1 |
| 20260904230838 | 33 | 160 | 8.0 | 9.7 | 0.00 | 0.00 | 0.00 | 45 | 1015.0 |
| 20260904230336 | 33 | 141 | 8.0 | 11.3 | 0.00 | 0.00 | 0.00 | 45 | 1014.9 |
| 20260904225832 | 34 | 182 | 3.2 | 3.2 | 0.00 | 0.00 | 0.00 | 45 | 1015.3 |
| 20260904225330 | 34 | 184 | 8.0 | 11.3 | 0.00 | 0.00 | 0.00 | 44 | 1015.1 |
| 20260904224829 | 34 | 117 | 8.0 | 11.3 | 0.00 | 0.00 | 0.00 | 44 | 1015.3 |
| 20260904224325 | 34 | 189 | 6.4 | 8.0 | 0.00 | 0.00 | 0.00 | 41 | 1015.2 |
| 20260904223824 | 33 | 214 | 6.4 | 8.0 | 0.00 | 0.00 | 0.00 | 47 | 1015.4 |
| 20260904223319 | 33 | 186 | 6.4 | 8.0 | 0.00 | 0.00 | 0.00 | 47 | 1015.3 |
| 20260904222816 | 34 | 211 | 3.2 | 4.8 | 0.00 | 0.00 | 0.00 | 45 | 1015.3 |
| 20260904222315 | 33 | 169 | 9.7 | 11.3 | 0.00 | 0.00 | 0.00 | 47 | 1015.2 |
| 20260904221810 | 33 | 118 | 9.7 | 11.3 | 0.00 | 0.00 | 0.00 | 49 | 1015.3 |
| 20260904221310 | 33 | 215 | 3.2 | 4.8 | 0.00 | 0.00 | 0.00 | 51 | 1015.3 |
| 20260904220806 | 33 | 191 | 8.0 | 9.7 | 0.00 | 0.00 | 0.00 | 52 | 1015.4 |
| 20260904220305 | 34 | 224 | 6.4 | 9.7 | 0.00 | 0.00 | 0.00 | 52 | 1015.5 |
| 20260904215800 | 34 | 196 | 8.0 | 12.9 | 0.00 | 0.00 | 0.00 | 51 | 1015.3 |
| 20260904215255 | 33 | 143 | 12.9 | 16.1 | 0.00 | 0.00 | 0.00 | 52 | 1015.4 |
| 20260904214751 | 33 | 165 | 8.0 | 11.3 | 0.00 | 0.00 | 0.00 | 52 | 1015.5 |
| 20260904214247 | 33 | 138 | 9.7 | 11.3 | 0.00 | 0.00 | 0.00 | 50 | 1015.6 |
| 20260904213745 | 33 | 169 | 8.0 | 11.3 | 0.00 | 0.00 | 0.00 | 52 | 1015.5 |
| 20260904213241 | 33 | 221 | 8.0 | 11.3 | 0.00 | 0.00 | 0.00 | 53 | 1015.7 |
| 20260904212736 | 33 | 187 | 4.8 | 8.0 | 0.00 | 0.00 | 0.00 | 55 | 1015.7 |
| 20260904212236 | 33 | 206 | 4.8 | 4.8 | 0.00 | 0.00 | 0.00 | 54 | 1015.6 |
| 20260904211731 | 33 | 129 | 9.7 | 14.5 | 0.00 | 0.00 | 0.00 | 55 | 1015.7 |
| 20260904211226 | 33 | 208 | 0.0 | 1.6 | 0.00 | 0.00 | 0.00 | 54 | 1015.8 |
| 20260904210721 | 35 | 158 | 11.3 | 14.5 | 0.00 | 0.00 | 0.00 | 53 | 1015.9 |
| 20260904210216 | 35 | 188 | 3.2 | 4.8 | 0.00 | 0.00 | 0.00 | 51 | 1016.0 |
| 20260904205712 | 33 | 196 | 4.8 | 8.0 | 0.00 | 0.00 | 0.00 | 53 | 1015.9 |
| 20260904205208 | 34 | 97 | 4.8 | 4.8 | 0.00 | 0.00 | 0.00 | 53 | 1015.9 |
| 20260904204703 | 34 | 160 | 4.8 | 8.0 | 0.00 | 0.00 | 0.00 | 52 | 1016.2 |
| 20260904204159 | 34 | 198 | 4.8 | 8.0 | 0.00 | 0.00 | 0.00 | 53 | 1016.1 |
| 20260904203655 | 34 | 230 | 0.0 | 0.0 | 0.00 | 0.00 | 0.00 | 56 | 1016.3 |
| 20260904203152 | 34 | 203 | 6.4 | 8.0 | 0.00 | 0.00 | 0.00 | 56 | 1016.3 |
| 20260904202647 | 34 | 160 | 6.4 | 8.0 | 0.00 | 0.00 | 0.00 | 56 | 1016.2 |
| 20260904202143 | 34 | 129 | 4.8 | 4.8 | 0.00 | 0.00 | 0.00 | 56 | 1016.3 |
| 20260904201638 | 34 | 176 | 4.8 | 8.0 | 0.00 | 0.00 | 0.00 | 55 | 1016.3 |
| 20260904201132 | 33 | 230 | 4.8 | 4.8 | 0.00 | 0.00 | 0.00 | 57 | 1016.5 |
| 20260904200627 | 33 | 155 | 9.7 | 11.3 | 0.00 | 0.00 | 0.00 | 60 | 1016.4 |
| 20260904200121 | 33 | 195 | 11.3 | 14.5 | 0.00 | 0.00 | 0.00 | 58 | 1016.6 |
| 20260904195620 | 33 | 201 | 11.3 | 16.1 | 0.00 | 0.00 | 0.00 | 59 | 1016.6 |
| 20260904195114 | 33 | 169 | 4.8 | 4.8 | 0.00 | 0.00 | 0.00 | 61 | 1016.6 |
| 20260904194614 | 33 | 206 | 6.4 | 8.0 | 0.00 | 0.00 | 0.00 | 61 | 1016.6 |
| 20260904194109 | 33 | 192 | 6.4 | 8.0 | 0.00 | 0.00 | 0.00 | 63 | 1016.7 |
| 20260904193603 | 33 | 181 | 8.0 | 9.7 | 0.00 | 0.00 | 0.00 | 63 | 1016.6 |
| 20260904193100 | 32 | 227 | 3.2 | 3.2 | 0.00 | 0.00 | 0.00 | 65 | 1017.1 |
| 20260904192559 | 32 | 133 | 3.2 | 3.2 | 0.00 | 0.00 | 0.00 | 64 | 1017.0 |
| 20260904192055 | 32 | 207 | 6.4 | 11.3 | 0.00 | 0.00 | 0.00 | 65 | 1017.2 |
| 20260904191552 | 32 | 144 | 6.4 | 8.0 | 0.00 | 0.00 | 0.00 | 65 | 1017.4 |
| 20260904191048 | 32 | 185 | 9.7 | 14.5 | 0.00 | 0.00 | 0.00 | 67 | 1017.5 |
| 20260904190543 | 31 | 186 | 8.0 | 9.7 | 0.00 | 0.00 | 0.00 | 68 | 1017.5 |
| 20260904190039 | 31 | 149 | 8.0 | 11.3 | 0.00 | 0.00 | 0.00 | 69 | 1017.6 |
| 20260904185536 | 32 | 214 | 6.4 | 9.7 | 0.00 | 0.00 | 0.00 | 67 | 1017.5 |
| 20260904185031 | 32 | 167 | 11.3 | 14.5 | 0.00 | 0.00 | 0.00 | 67 | 1017.4 |
| 20260904184530 | 31 | 168 | 8.0 | 11.3 | 0.00 | 0.00 | 0.00 | 68 | 1017.6 |
| 20260904184026 | 31 | 203 | 3.2 | 3.2 | 0.00 | 0.00 | 0.00 | 69 | 1017.7 |
| 20260904183521 | 31 | 221 | 4.8 | 8.0 | 0.00 | 0.00 | 0.00 | 69 | 1017.7 |
| 20260904183016 | 31 | 205 | 3.2 | 4.8 | 0.00 | 0.00 | 0.00 | 69 | 1017.9 |
| 20260904182512 | 31 | 172 | 3.2 | 4.8 | 0.00 | 0.00 | 0.00 | 69 | 1017.6 |
| 20260904182011 | 32 | 177 | 6.4 | 11.3 | 0.00 | 0.00 | 0.00 | 68 | 1017.6 |
| 20260904181507 | 31 | 183 | 9.7 | 11.3 | 0.00 | 0.00 | 0.00 | 68 | 1017.7 |
| 20260904181001 | 32 | 164 | 9.7 | 12.9 | 0.00 | 0.00 | 0.00 | 68 | 1017.8 |
| 20260904180456 | 32 | 193 | 8.0 | 9.7 | 0.00 | 0.00 | 0.00 | 68 | 1018.1 |
| 20260904175955 | 32 | 207 | 4.8 | 4.8 | 0.00 | 0.00 | 0.00 | 68 | 1017.9 |
| 20260904175450 | 31 | 180 | 3.2 | 9.7 | 0.00 | 0.00 | 0.00 | 69 | 1018.1 |
| 20260904174949 | 31 | 174 | 6.4 | 9.7 | 0.00 | 0.00 | 0.00 | 68 | 1018.0 |
| 20260904174445 | 31 | 195 | 4.8 | 4.8 | 0.00 | 0.00 | 0.00 | 71 | 1018.2 |
| 20260904173941 | 31 | 137 | 4.8 | 8.0 | 0.00 | 0.00 | 0.00 | 70 | 1018.2 |
| 20260904173441 | 31 | 160 | 6.4 | 11.3 | 0.00 | 0.00 | 0.00 | 69 | 1018.5 |
| 20260904172936 | 31 | 205 | 0.0 | 0.0 | 0.00 | 0.00 | 0.00 | 69 | 1018.3 |
| 20260904172431 | 31 | 215 | 4.8 | 8.0 | 0.00 | 0.00 | 0.00 | 68 | 1018.6 |
| 20260904171926 | 31 | 203 | 3.2 | 8.0 | 0.00 | 0.00 | 0.00 | 72 | 1018.2 |
| 20260904171422 | 31 | 245 | 3.2 | 4.8 | 0.00 | 0.00 | 0.00 | 69 | 1018.1 |
| 20260904170918 | 31 | 199 | 4.8 | 8.0 | 0.00 | 0.00 | 0.00 | 70 | 1018.3 |
| 20260904170413 | 31 | 196 | 1.6 | 3.2 | 0.00 | 0.00 | 0.00 | 70 | 1018.3 |
| 20260904165908 | 31 | 195 | 3.2 | 4.8 | 0.00 | 0.00 | 0.00 | 67 | 1018.5 |
| 20260904165407 | 31 | 182 | 4.8 | 8.0 | 0.00 | 0.00 | 0.00 | 68 | 1018.4 |
| 20260904164906 | 31 | 173 | 1.6 | 3.2 | 0.00 | 0.00 | 0.00 | 70 | 1018.3 |
| 20260904164401 | 30 | 222 | 0.0 | 0.0 | 0.00 | 0.00 | 0.00 | 75 | 1018.2 |
| 20260904163857 | 30 | 189 | 4.8 | 8.0 | 0.00 | 0.00 | 0.00 | 72 | 1018.2 |
| 20260904163357 | 30 | 168 | 1.6 | 3.2 | 0.00 | 0.00 | 0.00 | 73 | 1018.1 |
| 20260904162856 | 30 | 279 | 1.6 | 1.6 | 0.00 | 0.00 | 0.00 | 75 | 1018.3 |
| 20260904162352 | 30 | 184 | 0.0 | 0.0 | 0.00 | 0.00 | 0.00 | 77 | 1018.2 |
| 20260904161847 | 29 | 250 | 3.2 | 4.8 | 0.00 | 0.00 | 0.00 | 77 | 1018.2 |
| 20260904161342 | 29 | 281 | 3.2 | 3.2 | 0.00 | 0.00 | 0.00 | 78 | 1018.6 |
| 20260904160838 | 29 | 210 | 0.0 | 1.6 | 0.00 | 0.00 | 0.00 | 78 | 1018.3 |
| 20260904160333 | 29 | 210 | 0.0 | 0.0 | 0.00 | 0.00 | 0.00 | 78 | 1018.3 |
| 20260904155828 | 29 | 208 | 0.0 | 0.0 | 0.00 | 0.00 | 0.00 | 80 | 1018.3 |
| 20260904155322 | 29 | 223 | 1.6 | 4.8 | 0.00 | 0.00 | 0.00 | 80 | 1018.2 |
| 20260904154821 | 28 | 177 | 4.8 | 4.8 | 0.00 | 0.00 | 0.00 | 81 | 1018.0 |
| 20260904154315 | 28 | 173 | 3.2 | 3.2 | 0.00 | 0.00 | 0.00 | 81 | 1018.1 |
| 20260904153811 | 28 | 185 | 3.2 | 3.2 | 0.00 | 0.00 | 0.00 | 82 | 1018.2 |
| 20260904153306 | 28 | 182 | 1.6 | 3.2 | 0.00 | 0.00 | 0.00 | 83 | 1018.1 |
| 20260904152803 | 28 | 220 | 3.2 | 3.2 | 0.00 | 0.00 | 0.00 | 83 | 1018.2 |
| 20260904152257 | 28 | 181 | 3.2 | 3.2 | 0.00 | 0.00 | 0.00 | 84 | 1018.2 |
| 20260904151752 | 28 | 203 | 0.0 | 1.6 | 0.00 | 0.00 | 0.00 | 85 | 1018.0 |
| 20260904151251 | 27 | 190 | 4.8 | 4.8 | 0.00 | 0.00 | 0.00 | 86 | 1018.0 |
| 20260904150748 | 27 | 260 | 0.0 | 1.6 | 0.00 | 0.00 | 0.00 | 87 | 1018.2 |
| 20260904150243 | 27 | 206 | 1.6 | 1.6 | 0.00 | 0.00 | 0.00 | 87 | 1018.2 |
| 20260904145740 | 27 | 187 | 0.0 | 1.6 | 0.00 | 0.00 | 0.00 | 88 | 1018.2 |
| 20260904145236 | 27 | 211 | 1.6 | 3.2 | 0.00 | 0.00 | 0.00 | 88 | 1018.2 |
| 20260904144732 | 27 | 214 | 0.0 | 0.0 | 0.00 | 0.00 | 0.00 | 89 | 1018.3 |
| 20260904144227 | 27 | 222 | 1.6 | 1.6 | 0.00 | 0.00 | 0.00 | 89 | 1018.5 |
| 20260904143722 | 27 | 212 | 0.0 | 0.0 | 0.00 | 0.00 | 0.00 | 90 | 1018.5 |
| 20260904143220 | 27 | 216 | 0.0 | 1.6 | 0.00 | 0.00 | 0.00 | 91 | 1018.3 |
| 20260904142716 | 27 | 212 | 1.6 | 1.6 | 0.00 | 0.00 | 0.00 | 91 | 1018.4 |
| 20260904142211 | 27 | 199 | 0.0 | 0.0 | 0.00 | 0.00 | 0.00 | 92 | 1018.5 |
| 20260904141711 | 27 | 198 | 0.0 | 1.6 | 0.00 | 0.00 | 0.00 | 93 | 1018.3 |
| 20260904141207 | 27 | 197 | 1.6 | 3.2 | 0.00 | 0.00 | 0.00 | 92 | 1018.3 |
| 20260904140702 | 27 | 213 | 1.6 | 1.6 | 0.00 | 0.00 | 0.00 | 92 | 1018.2 |
| 20260904140157 | 27 | 213 | 1.6 | 1.6 | 0.00 | 0.00 | 0.00 | 92 | 1018.3 |
| 20260904135656 | 26 | 213 | 0.0 | 1.6 | 0.00 | 0.00 | 0.00 | 92 | 1018.3 |
| 20260904135152 | 26 | 176 | 3.2 | 3.2 | 0.00 | 0.00 | 0.00 | 92 | 1018.3 |
| 20260904134648 | 26 | 187 | 1.6 | 1.6 | 0.00 | 0.00 | 0.00 | 93 | 1018.1 |
| 20260904134146 | 26 | 215 | 1.6 | 1.6 | 0.00 | 0.00 | 0.00 | 93 | 1018.1 |
| 20260904133642 | 26 | 178 | 3.2 | 3.2 | 0.00 | 0.00 | 0.00 | 93 | 1018.3 |
| 20260904133138 | 26 | 210 | 3.2 | 3.2 | 0.00 | 0.00 | 0.00 | 93 | 1018.3 |
| 20260904132637 | 26 | 212 | 1.6 | 1.6 | 0.00 | 0.00 | 0.00 | 93 | 1018.1 |